CW8690 Weather Reports


time (UTC)temp
C
wind
direction
speed
KPH
gust
KPH
rain 1hr
cm
rain 24hr
cm
rain mn
cm
humidity
%
barometer
mb
20260507012623 27 135 8.0 17.7 0.00 0.00 0.00 93 1005.4
20260507011124 27 108 4.8 19.3 0.00 0.00 0.00 92 1005.3
20260507005622 27 146 9.7 17.7 0.00 0.00 0.00 91 1005.0
20260507004122 28 105 6.4 17.7 0.00 0.00 0.00 90 1004.8
20260507002642 28 143 8.0 19.3 0.00 0.00 0.00 89 1004.8
20260507001123 29 46 9.7 17.7 0.00 0.00 0.00 87 1004.8
20260506235625 30 130 9.7 20.9 0.00 0.00 0.00 85 1004.4
20260506234118 30 129 9.7 22.5 0.00 0.00 0.00 85 1004.4
20260506232639 30 144 11.3 20.9 0.00 0.00 0.00 83 1004.1
20260506231132 31 97 9.7 27.4 0.00 0.00 0.00 82 1003.9
20260506225626 31 62 11.3 22.5 0.00 0.00 0.00 81 1003.8
20260506224126 31 97 12.9 27.4 0.00 0.00 0.00 81 1003.7
20260506222620 31 81 14.5 29.0 0.00 0.00 0.00 81 1003.6
20260506221116 32 93 12.9 25.7 0.00 0.00 0.00 78 1003.8
20260506215620 34 109 8.0 24.1 0.00 0.00 0.00 70 1003.6
20260506214152 35 214 6.4 11.3 0.00 0.00 0.00 65 1003.6
20260506212617 35 202 6.4 12.9 0.00 0.00 0.00 66 1003.7
20260506211115 35 180 8.0 16.1 0.00 0.00 0.00 65 1003.6
20260506205617 34 84 8.0 17.7 0.00 0.00 0.00 69 1003.8
20260506204151 34 139 11.3 20.9 0.00 0.00 0.00 68 1003.9
20260506202630 34 113 11.3 17.7 0.00 0.00 0.00 69 1004.4
20260506201127 33 171 12.9 19.3 0.00 0.00 0.00 70 1004.4
20260506195622 33 180 9.7 17.7 0.00 0.00 0.00 70 1004.4
20260506194126 33 167 11.3 17.7 0.00 0.00 0.00 71 1004.6
20260506185646 33 175 11.3 24.1 0.00 0.00 0.00 72 1005.2
20260506184143 32 209 9.7 30.6 0.00 0.00 0.00 75 1005.1
20260506182620 32 204 9.7 25.7 0.00 0.00 0.00 76 1005.3
20260506181120 32 225 11.3 24.1 0.00 0.00 0.00 77 1005.6
20260506175643 31 115 11.3 27.4 0.00 0.00 0.00 78 1005.7
20260506174118 31 157 14.5 30.6 0.00 0.00 0.00 78 1005.8
20260506172636 31 166 14.5 27.4 0.00 0.00 0.00 79 1006.0
20260506171204 30 159 12.9 22.5 0.00 0.00 0.00 80 1006.0
20260506165642 31 170 11.3 20.9 0.00 0.00 0.00 80 1006.2
20260506164135 30 172 9.7 30.6 0.00 0.00 0.00 80 1006.0
20260506162625 30 126 9.7 25.7 0.00 0.00 0.00 82 1006.1
20260506161121 30 162 9.7 20.9 0.00 0.00 0.00 83 1005.9
20260506155637 30 166 4.8 16.1 0.00 0.00 0.00 85 1005.9
20260506154147 28 117 8.0 17.7 0.00 0.00 0.00 86 1005.9
20260506152624 28 116 11.3 19.3 0.00 0.00 0.00 87 1005.7
20260506151134 28 125 9.7 14.5 0.00 0.00 0.00 89 1006.0
20260506145624 27 171 4.8 14.5 0.00 0.00 0.00 88 1006.3
20260506144119 28 141 1.6 12.9 0.00 0.00 0.00 89 1006.4
20260506142636 27 157 4.8 16.1 0.00 0.00 0.00 91 1006.4
20260506141159 27 223 6.4 12.9 0.00 0.00 0.00 92 1006.7
20260506135618 26 174 3.2 11.3 0.00 0.00 0.00 92 1006.7
20260506134134 26 178 4.8 12.9 0.00 0.00 0.00 93 1006.4
20260506132637 26 180 4.8 12.9 0.00 0.00 0.00 93 1006.2
20260506131129 26 144 4.8 14.5 0.00 0.00 0.00 93 1006.2
20260506125628 26 145 8.0 14.5 0.00 0.00 0.00 94 1005.7
20260506124123 26 176 4.8 12.9 0.00 0.00 0.00 94 1005.5
20260506122624 26 165 4.8 11.3 0.00 0.00 0.00 94 1005.2
20260506121126 26 175 8.0 17.7 0.00 0.00 0.00 95 1005.1
20260506115630 26 153 8.0 19.3 0.00 0.00 0.00 95 1004.6
20260506114130 26 148 11.3 22.5 0.00 0.00 0.00 95 1004.3
20260506112633 26 91 9.7 22.5 0.00 0.00 0.00 95 1004.1
20260506111135 25 146 9.7 19.3 0.00 0.00 0.00 95 1004.0
20260506105633 26 175 12.9 20.9 0.00 0.00 0.00 95 1003.7
20260506104133 26 161 12.9 25.7 0.00 0.00 0.00 95 1003.5
20260506102644 26 137 12.9 19.3 0.00 0.00 0.00 94 1003.8
20260506101142 26 140 8.0 22.5 0.00 0.00 0.00 94 1003.6
20260506095619 26 124 9.7 24.1 0.00 0.00 0.00 95 1003.8
20260506094142 25 134 11.3 20.9 0.00 0.00 0.00 96 1003.7
20260506092643 25 130 8.0 19.3 0.00 0.00 0.00 96 1003.9
20260506091141 25 121 9.7 19.3 0.00 0.00 0.00 96 1004.0
20260506085635 25 85 8.0 14.5 0.00 0.00 0.00 96 1004.0
20260506084124 25 138 11.3 17.7 0.00 0.00 0.00 96 1004.1
20260506082621 25 136 9.7 14.5 0.00 0.00 0.00 96 1004.3
20260506081119 25 98 9.7 17.7 0.00 0.00 0.00 96 1004.4
20260506072622 25 141 8.0 22.5 0.00 0.00 0.00 95 1004.8
20260506071125 25 142 12.9 22.5 0.00 0.00 0.00 95 1004.9
20260506061120 25 129 11.3 20.9 0.00 0.00 0.00 94 1005.3
20260506051124 26 148 11.3 22.5 0.00 0.00 0.00 93 1006.2
20260506044120 26 126 12.9 20.9 0.00 0.00 0.00 92 1006.2
20260506042618 26 104 11.3 17.7 0.00 0.00 0.00 92 1006.3
20260506041140 26 117 12.9 22.5 0.00 0.00 0.00 91 1006.2
20260506035621 26 123 11.3 24.1 0.00 0.00 0.00 91 1006.2
20260506034117 26 164 11.3 20.9 0.00 0.00 0.00 91 1006.0
20260506032641 26 130 12.9 19.3 0.00 0.00 0.00 91 1005.8
20260506031116 26 98 9.7 20.9 0.00 0.00 0.00 91 1005.8
20260506025641 26 142 11.3 20.9 0.00 0.00 0.00 91 1005.5
20260506024139 26 104 12.9 22.5 0.00 0.00 0.00 90 1005.3
20260506022620 26 144 11.3 22.5 0.00 0.00 0.00 90 1005.0
20260506021135 26 134 14.5 24.1 0.00 0.00 0.00 90 1004.7
20260506015625 26 128 14.5 22.5 0.00 0.00 0.00 89 1004.3
20260506014125 26 148 14.5 24.1 0.00 0.00 0.00 89 1004.1